TimeCDT,TemperatureF,Dew PointF,Humidity,Sea Level PressureIn,VisibilityMPH,Wind Direction,Wind SpeedMPH,Gust SpeedMPH,PrecipitationIn,Events,Conditions,WindDirDegrees,DateUTC
12:53 AM,73.9,71.1,91,29.99,5.0,Calm,Calm,-,N/A,,Clear,0,2013-09-09 05:53:00
1:53 AM,73.0,70.0,90,29.98,5.0,Calm,Calm,-,N/A,,Clear,0,2013-09-09 06:53:00
2:53 AM,72.0,69.1,91,29.98,5.0,Calm,Calm,-,N/A,,Clear,0,2013-09-09 07:53:00
3:53 AM,72.0,70.0,93,29.99,4.0,Calm,Calm,-,N/A,,Clear,0,2013-09-09 08:53:00
4:53 AM,71.1,69.1,93,30.01,4.0,Calm,Calm,-,N/A,,Clear,0,2013-09-09 09:53:00
5:53 AM,71.1,69.1,93,30.02,5.0,Calm,Calm,-,N/A,,Scattered Clouds,0,2013-09-09 10:53:00
6:29 AM,69.8,68.0,94,30.03,1.8,Calm,Calm,-,N/A,,Clear,0,2013-09-09 11:29:00
6:37 AM,69.8,68.0,94,30.04,3.0,Calm,Calm,-,N/A,,Clear,0,2013-09-09 11:37:00
6:53 AM,71.1,68.0,90,30.04,3.0,Calm,Calm,-,N/A,,Clear,0,2013-09-09 11:53:00
7:53 AM,75.0,71.1,87,30.05,5.0,Calm,Calm,-,N/A,,Clear,0,2013-09-09 12:53:00
8:53 AM,79.0,71.1,77,30.06,5.0,Calm,Calm,-,N/A,,Haze,0,2013-09-09 13:53:00
9:53 AM,84.9,70.0,61,30.07,8.0,Calm,Calm,-,N/A,,Clear,0,2013-09-09 14:53:00
10:53 AM,88.0,71.1,57,30.07,8.0,Variable,4.6,-,N/A,,Clear,0,2013-09-09 15:53:00
11:53 AM,90.0,70.0,52,30.06,8.0,Calm,Calm,-,N/A,,Clear,0,2013-09-09 16:53:00
12:53 PM,91.0,70.0,50,30.06,8.0,SSE,5.8,-,N/A,,Scattered Clouds,160,2013-09-09 17:53:00
1:53 PM,91.9,70.0,48,30.03,8.0,Calm,Calm,-,N/A,,Partly Cloudy,0,2013-09-09 18:53:00
2:53 PM,91.9,71.1,50,30.02,8.0,SSE,5.8,-,N/A,,Mostly Cloudy,160,2013-09-09 19:53:00
3:33 PM,87.8,71.6,58,30.02,7.0,SSE,5.8,-,N/A,Thunderstorm,Scattered Clouds,150,2013-09-09 20:33:00
3:53 PM,90.0,69.1,50,30.01,8.0,SSW,3.5,-,N/A,,Partly Cloudy,210,2013-09-09 20:53:00
4:53 PM,90.0,72.0,55,30.01,8.0,North,8.1,-,N/A,,Mostly Cloudy,360,2013-09-09 21:53:00
5:53 PM,89.1,71.1,55,30.00,7.0,NNE,5.8,-,N/A,,Clear,30,2013-09-09 22:53:00
6:53 PM,86.0,73.9,67,30.01,7.0,Calm,Calm,-,N/A,,Clear,0,2013-09-09 23:53:00
7:53 PM,82.0,73.9,76,30.02,7.0,Calm,Calm,-,N/A,,Clear,0,2013-09-10 00:53:00
8:53 PM,80.1,75.0,85,30.03,7.0,Calm,Calm,-,N/A,,Partly Cloudy,0,2013-09-10 01:53:00
9:53 PM,78.1,73.9,87,30.04,6.0,South,4.6,-,N/A,,Scattered Clouds,170,2013-09-10 02:53:00
10:53 PM,78.1,73.9,87,30.06,6.0,Calm,Calm,-,N/A,,Clear,0,2013-09-10 03:53:00
11:53 PM,77.0,73.0,88,30.06,5.0,Calm,Calm,-,N/A,,Clear,0,2013-09-10 04:53:00